Terminal Aerodrome Forecast
Issued by NWS Spokane, WA

Home | Current Version | Previous Version | Text Only | Print | Product List | Glossary On
Versions: 1 2 3 4 5 6 7 8 9 10 11 12 13 14 15 16 17 18 19 20 21 22 23 24 25 26 27 28 29 30 31 32 33 34
051
FTUS46 KOTX 040525
TAFEAT
TAF
KEAT 040525Z 0406/0506 34005KT P6SM OVC150 WS020/28030KT
     FM041400 30007KT P6SM SCT050 BKN100
     FM041800 30019G29KT P6SM SKC
     FM050200 32013KT P6SM SKC=

USA.gov is the U.S. government's official web portal to all federal, state and local government web resources and services.